Location: Zagreb
(45.8000°N, 16.0000°E)
Time: 00:33:27
(UTC+01:00)

Transit 2A Rocket - Pass Details

Date: 03 October 2020
Orbit: 586 x 916 km, 66.7° (Epoch: 28 October)

Event Time Altitude Azimuth Distance (km) Brightness Sun altitude
Rises 23:50:28 0° 330° (NNW) 3,452 9.1 -47.0°
Reaches altitude 10° 23:53:24 10° 342° (NNW) 2,464 8.2 -47.1°
Enters shadow 23:53:27 10° 342° (NNW) 2,447 8.1 -47.1°
Maximum altitude 23:58:14 28° 40° (NE) 1,467 - -47.4°
Drops below altitude 10° 00:02:41 10° 99° (E) 2,266 - -47.6°
Sets 00:05:16 0° 111° (ESE) 3,127 - -47.7°
